Torna al catalogo

SOLRAD 11B

LostScienzaMEO
NORAD 8749·PAYLOAD·🇺🇸 United States

Lanciato Mar 15, 1976 da Cape Canaveral Space Force Station

Loading…

Prossimi Passaggi (prossime 24 ore)

TLE

ObsoletoSource: Space-Track

Epoca: Mar 27, 1976, 08:41 UTC

1 08749U 76023D   76087.36180556 -.00000524  00000-0  00000-0 0  9990
2 08749  25.1859  41.8762 0042607 117.6028 158.8834  0.20212142    14

Traccia SOLRAD 11B in tempo reale con AllMySat

Download on the App Store